GW3985 Weather Reports


time (UTC)temp
F
wind
direction
speed
knots
gust
knots
rain 1hr
in
rain 24hr
in
rain mn
in
humidity
%
barometer
mb
20260906164015 73 150 0.0 0.9 0.00 0.00 0.00 60 1025.9
20260906163015 72 276 0.0 0.9 0.00 0.00 0.00 61 1026.1
20260906162016 71 295 0.0 0.9 0.00 0.00 0.00 62 1026.1
20260906161056 71 293 0.0 0.9 0.00 0.00 0.00 65 1026.1
20260906160017 70 0.0 0.0 0.00 0.00 0.00 65 1025.9
20260906155017 70 0.0 0.0 0.00 0.00 0.00 67 1025.9
20260906154015 69 27 0.0 1.7 0.00 0.00 0.00 69 1026.1
20260906153015 68 41 0.0 0.9 0.00 0.00 0.00 71 1026.1
20260906152015 68 50 0.0 0.9 0.00 0.00 0.00 73 1025.9
20260906151017 67 239 0.0 0.9 0.00 0.00 0.00 73 1026.0
20260906145516 66 224 0.0 0.9 0.00 0.00 0.00 74 1026.0
20260906144537 65 143 0.0 1.7 0.00 0.00 0.00 74 1025.9
20260906143535 65 264 0.0 0.9 0.00 0.00 0.00 74 1025.9
20260906142515 64 277 0.0 0.9 0.00 0.00 0.00 74 1026.0
20260906141515 63 277 0.0 0.9 0.00 0.00 0.00 72 1026.1
20260906140516 63 0.0 0.0 0.00 0.00 0.00 71 1026.1
20260906135516 62 277 0.0 0.9 0.00 0.00 0.00 71 1025.9
20260906134517 62 0.0 0.0 0.00 0.00 0.00 71 1025.7
20260906133517 61 269 0.0 0.9 0.00 0.00 0.00 72 1025.7
20260906132535 60 0.0 0.0 0.00 0.00 0.00 73 1025.4
20260906131515 60 0.0 0.0 0.00 0.00 0.00 74 1025.4
20260906130516 59 0.0 0.0 0.00 0.00 0.00 73 1025.5
20260906125516 59 0.0 0.0 0.00 0.00 0.00 74 1025.6
20260906124516 59 0.0 0.0 0.00 0.00 0.00 74 1025.6
20260906123517 59 0.0 0.0 0.00 0.00 0.00 73 1025.5
20260906122517 60 0.0 0.0 0.00 0.00 0.00 72 1025.3
20260906121535 60 0.0 0.0 0.00 0.00 0.00 72 1025.2
20260906120555 60 0.0 0.0 0.00 0.00 0.00 72 1025.1
20260906115516 60 0.0 0.0 0.00 0.00 0.00 72 1025.1
20260906114516 60 274 0.0 0.9 0.00 0.00 0.00 72 1025.1
20260906113516 60 0.0 0.0 0.00 0.00 0.00 71 1025.1
20260906112537 61 0.0 0.0 0.00 0.00 0.00 71 1025.0
20260906111515 61 0.0 0.0 0.00 0.00 0.00 70 1025.0
20260906110515 62 0.0 0.0 0.00 0.00 0.00 69 1025.0
20260906105515 62 274 0.0 0.9 0.00 0.00 0.00 68 1025.0
20260906104516 63 0.0 0.0 0.00 0.00 0.00 67 1024.9
20260906103516 63 0.0 0.0 0.00 0.00 0.00 67 1024.9
20260906102516 63 0.0 0.0 0.00 0.00 0.00 67 1024.7
20260906101517 63 0.0 0.0 0.00 0.00 0.00 67 1024.9
20260906100515 63 280 0.0 0.9 0.00 0.00 0.00 67 1024.8
20260906095515 63 146 0.0 0.9 0.00 0.00 0.00 67 1024.7
20260906094536 63 135 0.0 0.9 0.00 0.00 0.00 66 1024.7
20260906093516 63 0.0 0.0 0.00 0.00 0.00 66 1024.7
20260906092516 64 135 0.0 0.9 0.00 0.00 0.00 65 1024.7
20260906091537 64 135 0.0 0.9 0.00 0.00 0.00 63 1024.6
20260906090537 65 0.0 0.0 0.00 0.00 0.00 62 1024.6
20260906085515 66 0.0 0.0 0.00 0.00 0.00 60 1024.5
20260906084515 66 135 0.0 0.9 0.00 0.00 0.00 59 1024.6
20260906083516 67 135 0.0 0.9 0.00 0.00 0.00 59 1024.6
20260906082516 67 0.0 0.0 0.00 0.00 0.00 59 1024.8
20260906081517 67 0.0 0.0 0.00 0.00 0.00 58 1024.8
20260906080017 68 133 0.0 0.9 0.00 0.00 0.00 57 1024.8
20260906075015 68 0.0 0.0 0.00 0.00 0.00 57 1024.9
20260906074135 69 134 0.0 1.7 0.00 0.00 0.00 57 1024.8
20260906073015 69 135 0.0 1.7 0.00 0.00 0.00 56 1024.7
20260906072016 69 131 0.0 1.7 0.00 0.00 0.00 56 1024.6
20260906071036 69 104 0.0 0.9 0.00 0.00 0.00 57 1024.6
20260906070040 69 48 0.0 0.9 0.00 0.00 0.00 57 1024.5
20260906065037 69 0.0 0.0 0.00 0.00 0.00 56 1024.4
20260906064055 70 0.0 0.0 0.00 0.00 0.00 55 1024.3
20260906063015 70 36 0.0 0.9 0.00 0.00 0.00 54 1024.5
20260906062016 71 0.0 0.0 0.00 0.00 0.00 53 1024.4
20260906061016 71 0.0 0.0 0.00 0.00 0.00 52 1024.5
20260906060016 72 84 0.0 0.9 0.00 0.00 0.00 51 1024.7
20260906055017 72 83 0.0 2.6 0.00 0.00 0.00 49 1024.9
20260906054017 72 81 0.0 1.7 0.00 0.00 0.00 47 1025.0
20260906053015 72 129 0.0 0.9 0.00 0.00 0.00 47 1024.8
20260906052015 72 0.0 0.0 0.00 0.00 0.00 48 1024.7
20260906051016 72 129 0.0 0.9 0.00 0.00 0.00 46 1024.7
20260906050016 72 0.0 0.0 0.00 0.00 0.00 46 1024.9
20260906045016 73 0.0 0.0 0.00 0.00 0.00 46 1024.9
20260906044017 73 0.0 0.0 0.00 0.00 0.00 45 1025.1
20260906043014 74 0.0 0.0 0.00 0.00 0.00 45 1025.0
20260906042035 75 0.0 0.0 0.00 0.00 0.00 44 1024.9
20260906041015 75 0.0 0.0 0.00 0.00 0.00 41 1024.9
20260906040016 76 0.0 0.0 0.00 0.00 0.00 40 1025.0
20260906034016 77 129 0.0 1.7 0.00 0.00 0.00 39 1025.1
20260906033017 75 104 0.9 2.6 0.00 0.00 0.00 40 1025.0
20260906032014 75 137 0.9 2.6 0.00 0.00 0.00 42 1024.7
20260906031015 75 0.0 0.0 0.00 0.00 0.00 41 1024.0
20260906030016 75 0.0 0.0 0.00 0.00 0.00 41 1023.8
20260906025016 75 0.0 0.0 0.00 0.00 0.00 42 1023.6
20260906024016 75 0.0 0.0 0.00 0.00 0.00 41 1023.5
20260906023017 77 0.0 0.0 0.00 0.00 0.00 40 1023.3
20260906022037 78 0.0 0.0 0.00 0.00 0.00 38 1023.1
20260906021015 79 0.0 0.0 0.00 0.00 0.00 36 1023.0
20260906020015 80 0.0 0.0 0.00 0.00 0.00 35 1023.0
20260906015015 81 137 0.0 0.9 0.00 0.00 0.00 35 1023.0
20260906014016 81 137 0.0 0.9 0.00 0.00 0.00 34 1022.8
20260906013017 82 136 0.0 0.9 0.00 0.00 0.00 34 1022.8
20260906012017 83 139 0.0 0.9 0.00 0.00 0.00 33 1022.7
20260906011017 84 138 0.9 0.9 0.00 0.00 0.00 32 1022.7
20260906010015 84 145 0.0 2.6 0.00 0.00 0.00 32 1022.8
20260906005035 85 259 0.0 0.9 0.00 0.00 0.00 32 1022.8
20260906004015 85 150 0.0 0.9 0.00 0.00 0.00 31 1022.8
20260906003016 86 132 0.0 0.9 0.00 0.00 0.00 30 1022.7
20260906002016 86 146 0.0 1.7 0.00 0.00 0.00 30 1022.7
20260906001017 87 145 0.9 3.5 0.00 0.00 0.00 29 1022.7
20260906000035 88 139 0.9 3.5 0.00 0.00 0.00 29 1022.6
20260905235015 91 145 1.7 3.5 0.00 0.00 0.00 27 1022.6
20260905234055 93 136 0.0 0.9 0.00 0.00 0.00 24 1022.5
20260905233036 92 136 0.0 0.9 0.00 0.00 0.00 25 1022.5
20260905232016 92 143 0.9 3.5 0.00 0.00 0.00 25 1022.5
20260905231036 92 108 0.0 0.9 0.00 0.00 0.00 25 1022.5
20260905230017 92 141 0.0 0.9 0.00 0.00 0.00 24 1022.5
20260905225014 91 0.0 0.0 0.00 0.00 0.00 25 1022.5
20260905224015 89 155 0.0 0.9 0.00 0.00 0.00 27 1022.5
20260905223015 87 0.0 0.0 0.00 0.00 0.00 29 1022.6
20260905222036 88 228 0.0 0.9 0.00 0.00 0.00 28 1022.7
20260905221016 89 222 0.0 0.9 0.00 0.00 0.00 27 1022.7
20260905220117 89 0.0 0.0 0.00 0.00 0.00 27 1022.7
20260905215017 90 129 0.0 1.7 0.00 0.00 0.00 26 1022.8
20260905214015 92 98 0.9 1.7 0.00 0.00 0.00 25 1022.9
20260905213035 90 274 0.0 0.9 0.00 0.00 0.00 27 1022.9
20260905212017 89 144 0.0 0.9 0.00 0.00 0.00 28 1023.1
20260905211016 89 146 0.0 0.9 0.00 0.00 0.00 27 1023.2
20260905210016 91 156 0.0 0.9 0.00 0.00 0.00 26 1023.2
20260905205036 92 329 0.0 1.7 0.00 0.00 0.00 26 1023.3
20260905204037 92 137 0.0 2.6 0.00 0.00 0.00 26 1023.4
20260905203015 93 122 0.9 3.5 0.00 0.00 0.00 26 1023.6
20260905202015 92 105 0.9 2.6 0.00 0.00 0.00 26 1023.7
20260905201015 91 186 0.9 1.7 0.00 0.00 0.00 25 1023.7
20260905200036 92 105 0.9 2.6 0.00 0.00 0.00 26 1023.8
20260905195016 92 211 0.0 1.7 0.00 0.00 0.00 26 1024.0
20260905194017 91 50 0.9 3.5 0.00 0.00 0.00 26 1024.1
20260905193017 91 102 0.9 1.7 0.00 0.00 0.00 26 1024.1
20260905192015 90 250 0.0 1.7 0.00 0.00 0.00 27 1024.2
20260905191016 90 356 0.0 3.5 0.00 0.00 0.00 28 1024.3
20260905190016 89 327 0.9 2.6 0.00 0.00 0.00 28 1024.3
20260905185016 88 270 0.0 0.9 0.00 0.00 0.00 29 1024.5
20260905184016 88 280 0.9 2.6 0.00 0.00 0.00 29 1024.5
20260905183017 87 273 0.9 2.6 0.00 0.00 0.00 30 1024.7
20260905182017 86 326 0.9 2.6 0.00 0.00 0.00 31 1024.8
20260905181015 85 291 0.0 2.6 0.00 0.00 0.00 31 1025.0
20260905180015 85 245 0.0 2.6 0.00 0.00 0.00 32 1025.1
20260905175015 85 309 0.9 2.6 0.00 0.00 0.00 33 1025.2
20260905174036 83 114 0.0 0.9 0.00 0.00 0.00 33 1025.2
20260905173036 82 278 0.0 0.9 0.00 0.00 0.00 35 1025.3
20260905172017 83 308 0.0 1.7 0.00 0.00 0.00 34 1025.2
20260905171014 82 276 0.0 0.9 0.00 0.00 0.00 35 1025.1
20260905170015 82 263 0.0 0.9 0.00 0.00 0.00 36 1025.0
20260905165015 80 139 0.0 0.9 0.00 0.00 0.00 39 1025.1